Theta_e
318 318 316 316 316 317 317 318 319 320 320 319 318 318 319 320 320 321 321 321 320 320 320 320 321 321 321 321 320 318 317 315 312 310 308 307 305 304 303 303 304 304 304 303 303 302 302 302 302 302 302 302 303 303 303 304 304 304 302 300 298 300 300 300 300 301 301 300 301 301 301 301 301 301 301 301 301 301 302 302 303 302 301 300 300
318 317 316 316 316 316 317 318 319 320 320 319 318 318 318 318 319 321 321 321 320 320 320 320 320 321 321 322 321 320 318 317 315 313 311 310 309 308 306 305 305 306 306 306 305 304 303 303 303 303 303 303 303 303 303 303 304 305 304 302 300 299 300 300 300 300 300 301 301 302 302 302 302 301 301 301 302 302 302 302 303 303 302 300 300
319 318 317 316 316 317 317 318 318 319 319 319 319 318 318 317 318 320 321 320 320 320 320 320 320 320 321 321 322 321 320 318 316 315 314 313 313 313 312 310 309 308 308 307 306 305 305 305 304 304 305 305 304 303 303 303 304 304 304 304 303 302 301 301 301 300 300 301 302 302 302 302 302 301 301 301 302 302 302 303 303 303 302 301 300
319 318 318 317 317 317 317 317 317 318 318 318 318 318 317 317 318 319 320 320 319 319 320 320 320 321 321 321 322 322 321 319 318 317 317 316 315 315 315 315 314 313 312 311 309 308 307 306 306 305 305 305 305 304 304 304 304 304 304 304 304 304 304 303 302 302 302 302 303 303 302 302 301 301 301 302 302 302 302 303 303 303 303 301 300
320 319 318 318 317 317 317 317 317 317 318 318 318 317 317 317 318 319 320 320 319 318 319 320 321 321 321 321 322 322 322 321 319 319 319 318 318 317 316 316 316 316 316 314 313 312 311 311 311 309 307 306 306 305 305 305 305 305 305 304 304 305 305 305 305 304 303 303 303 303 303 302 302 301 301 302 302 303 303 303 303 303 303 301 298
320 319 319 318 318 317 317 317 317 317 317 317 318 317 316 317 318 319 320 320 319 318 318 319 320 320 321 321 322 322 322 321 321 321 321 320 320 319 318 318 318 318 318 317 317 316 315 315 314 313 310 309 309 308 307 306 306 306 306 306 306 305 305 305 305 305 304 303 303 303 302 303 302 302 302 302 303 303 303 303 303 303 302 299 298
320 319 319 319 318 318 318 318 317 317 317 318 318 317 317 316 317 318 318 318 318 317 317 318 319 320 321 321 322 322 322 322 321 321 321 321 321 320 320 319 319 319 319 319 319 319 318 318 317 316 314 313 313 312 311 309 308 308 307 307 307 307 306 306 305 305 304 304 303 303 302 303 303 303 303 303 303 303 303 303 302 302 301 299 298
320 320 319 319 319 319 319 318 318 318 318 318 318 318 317 317 317 317 317 317 317 317 317 318 319 319 320 321 321 322 322 322 322 321 321 321 321 321 321 321 320 320 320 320 320 320 320 320 319 318 318 317 316 316 314 313 312 311 310 309 307 307 306 306 305 305 304 303 303 302 302 302 303 303 303 303 303 303 303 302 302 302 300 299 298
321 320 320 320 320 320 319 319 319 318 318 318 318 318 318 317 317 317 317 317 317 317 317 317 318 318 319 320 321 322 322 322 321 321 322 321 321 321 322 321 321 321 321 321 321 321 321 321 321 320 320 319 319 318 317 316 315 314 313 312 310 308 307 306 306 304 303 302 302 302 302 302 302 303 303 303 303 303 303 302 302 301 300 298 298
322 321 320 320 320 320 320 319 319 319 318 318 319 318 318 318 318 318 318 318 318 318 317 317 317 318 318 319 320 321 321 321 321 321 321 321 321 321 321 322 322 322 322 322 322 322 322 322 322 321 321 320 320 319 319 318 317 317 317 315 312 310 308 306 306 305 303 302 302 302 302 302 303 304 304 304 304 303 303 302 302 301 299 299 300
322 322 321 321 321 321 320 319 319 319 319 318 319 318 319 318 318 318 318 318 318 318 318 317 317 318 318 319 319 320 320 320 320 320 320 321 321 321 321 322 322 322 322 322 322 322 322 322 322 322 321 320 320 320 320 319 318 319 317 314 312 310 309 308 306 305 304 303 303 303 302 303 304 304 304 304 304 303 303 302 301 300 298 298 299
323 322 323 322 321 321 321 320 320 320 319 319 319 319 318 318 318 318 318 318 318 318 318 317 318 318 318 319 319 319 319 319 319 320 320 320 321 321 321 321 322 322 322 322 322 322 322 322 322 322 321 321 321 321 321 320 320 319 316 313 312 313 312 310 309 307 305 304 304 303 303 304 304 304 304 304 304 304 303 302 300 300 298 297 297
324 324 323 323 322 322 322 322 321 321 321 321 320 320 319 318 318 318 318 318 318 318 318 318 318 318 318 319 318 318 318 318 319 319 320 320 320 321 321 321 322 322 322 322 322 322 322 322 321 321 322 321 321 321 321 320 320 318 315 313 314 314 313 312 311 309 307 306 305 305 305 305 305 305 305 305 304 304 302 301 301 300 299 298 298
326 325 324 323 323 323 322 322 322 322 322 322 321 321 320 319 319 318 318 318 318 318 318 318 319 318 319 319 318 318 318 318 318 318 319 319 319 320 321 321 321 322 322 322 322 322 322 321 321 321 321 321 321 321 320 319 319 318 316 314 314 314 314 314 314 312 309 307 306 306 306 306 306 306 306 305 305 304 303 302 301 300 300 300 300
327 326 325 324 324 324 323 323 322 322 323 322 322 322 321 320 319 319 319 318 318 318 319 318 319 319 319 319 318 318 318 318 318 318 318 318 319 320 320 321 321 322 322 322 322 322 322 321 321 321 321 321 322 321 320 319 318 316 315 315 314 313 313 314 315 314 312 310 308 307 307 307 307 307 307 305 305 305 304 303 302 301 300 300 299
327 327 326 325 325 324 324 323 323 323 322 322 322 322 321 321 320 319 319 319 318 318 318 318 319 318 318 318 318 318 319 318 319 319 319 318 319 319 320 320 321 321 321 322 322 322 321 321 321 321 321 321 322 321 320 318 316 314 314 314 314 313 313 315 315 314 314 314 312 310 308 308 308 307 307 306 305 305 304 302 301 301 300 299 299
327 327 326 326 325 325 325 324 323 323 322 322 322 322 322 321 320 320 319 319 319 319 318 318 319 318 318 318 318 319 319 319 319 319 319 319 319 320 320 320 321 321 321 321 321 321 321 321 321 320 320 321 322 321 320 316 314 314 314 313 313 313 314 315 315 314 314 314 312 311 309 308 308 307 306 306 305 305 303 302 301 301 300 299 299
327 326 326 326 326 325 325 324 324 323 323 323 322 322 322 321 321 321 320 319 319 319 319 319 319 318 319 318 318 319 319 320 320 320 320 320 319 320 320 320 320 320 320 321 320 320 321 321 321 320 320 321 322 321 320 317 314 313 313 313 312 312 314 314 313 312 313 311 311 310 309 308 307 307 306 305 304 304 303 302 302 302 300 299 299
326 327 327 327 326 326 325 325 324 324 323 323 323 322 322 322 321 321 320 320 320 320 320 319 319 319 319 319 319 319 319 319 320 320 320 320 320 320 320 320 320 320 320 320 320 320 320 321 321 321 321 322 322 321 319 317 316 315 314 313 311 312 314 314 311 310 310 310 310 310 309 308 307 306 305 304 304 304 304 303 303 302 301 300 299
327 327 327 327 326 326 326 325 325 325 324 324 323 323 323 322 322 321 321 321 321 320 320 320 320 320 320 320 320 320 320 320 320 320 321 321 321 320 320 320 320 320 320 320 320 320 320 321 321 322 321 321 321 320 319 318 317 317 315 314 312 313 314 313 311 309 309 309 310 310 309 308 307 306 305 305 304 304 303 303 302 301 301 300 299
327 328 328 327 327 326 326 326 325 325 325 324 324 324 324 323 323 322 322 322 321 321 321 320 320 320 320 320 320 321 321 321 321 321 321 321 321 321 321 321 320 321 320 320 320 320 320 321 322 322 321 321 320 320 319 319 318 317 315 314 314 314 313 311 310 309 308 308 308 309 308 307 306 306 305 304 303 303 302 301 301 300 300 300 300
327 328 327 327 327 327 326 326 325 325 325 324 324 325 324 324 323 323 323 323 322 322 322 321 321 321 321 321 321 321 322 321 321 322 321 322 322 321 321 321 321 321 320 320 320 320 321 322 322 320 320 320 320 319 319 318 316 315 314 314 314 313 311 310 309 308 307 308 308 307 306 306 305 305 304 303 302 302 301 301 300 299 299 299 299
325 326 326 326 326 325 325 325 325 325 325 324 324 325 324 324 324 323 323 323 323 322 322 322 321 321 321 321 321 322 322 322 322 322 321 321 322 321 321 321 322 321 321 321 321 321 322 323 322 320 320 320 318 317 317 315 314 314 314 313 313 311 310 308 307 307 307 307 307 306 306 305 304 304 303 302 302 302 301 301 300 299 298 298 298
321 321 321 322 322 322 321 321 322 322 322 323 323 323 324 323 323 323 323 323 322 322 322 321 321 321 321 321 321 322 322 322 321 321 321 321 321 321 321 321 321 321 321 321 322 323 322 322 320 319 319 318 317 316 315 314 313 313 312 312 311 310 309 308 307 307 307 307 306 305 304 304 303 303 302 302 302 302 302 301 300 299 298 298 298
318 317 317 317 317 318 318 318 318 319 319 320 319 318 319 319 319 319 320 320 320 320 321 320 320 320 320 319 319 320 320 320 321 320 320 321 321 322 322 323 323 322 322 322 322 322 321 319 318 318 318 316 315 314 312 311 310 310 310 310 309 309 309 308 308 307 307 306 305 304 304 303 303 303 303 303 303 303 302 301 300 299 299 298 298
315 315 316 315 315 315 315 315 316 316 317 317 316 314 313 313 312 313 314 314 314 314 314 314 314 315 314 314 314 315 316 317 317 318 318 319 319 320 321 321 321 321 320 318 317 316 316 316 316 315 313 311 309 309 308 308 309 309 309 309 309 309 309 308 307 306 305 305 304 304 304 303 304 304 304 304 304 303 301 300 299 299 299 298 298
313 313 314 314 314 315 314 314 313 313 312 312 311 309 307 307 306 307 308 310 311 311 310 310 310 310 310 311 311 311 312 313 313 314 315 315 316 317 317 317 317 316 315 313 312 311 311 311 310 309 308 307 308 309 309 309 309 309 309 309 309 309 308 308 307 306 305 305 305 305 305 305 305 305 304 304 303 302 300 299 299 299 299 298 297
311 312 312 313 313 313 313 313 313 310 308 306 306 305 305 304 303 303 303 304 305 306 307 307 307 308 308 309 310 311 311 312 312 312 313 313 314 315 315 315 314 313 312 312 311 310 309 308 307 308 308 309 310 310 310 309 309 309 309 308 308 308 308 308 307 307 306 306 306 306 306 305 305 304 304 304 303 302 300 300 299 299 298 298 298
309 310 311 310 310 311 312 313 312 309 306 304 304 304 304 304 304 303 303 302 302 303 304 305 306 307 308 308 309 310 310 311 311 312 312 313 313 314 314 314 313 313 312 311 311 311 310 309 309 310 310 310 309 309 309 309 309 308 308 308 308 308 308 308 307 307 307 307 307 306 306 305 304 304 304 304 304 302 301 301 300 300 299 299 299
306 307 307 307 308 309 310 311 311 308 306 305 305 304 304 304 304 305 304 304 304 304 304 305 307 307 308 309 310 310 310 311 311 312 313 313 313 313 313 313 312 312 312 312 311 311 311 310 309 309 309 309 309 309 309 309 308 308 308 308 308 308 308 308 307 307 307 307 307 306 305 305 305 304 304 303 303 302 302 302 301 301 300 300 300
303 304 304 305 305 305 307 309 310 309 307 306 306 306 305 305 305 305 305 305 305 304 304 304 305 305 306 307 309 309 309 309 309 310 310 310 311 311 312 311 311 311 311 311 311 310 310 310 309 309 309 309 309 309 309 308 308 308 308 308 308 308 308 308 308 308 308 307 307 306 305 305 304 304 303 303 302 302 302 302 302 301 301 300 300
302 302 303 303 304 303 303 305 307 309 309 309 308 308 307 306 306 305 304 304 304 304 304 304 304 304 304 305 306 307 307 307 306 306 306 306 307 307 308 308 307 308 310 310 310 310 311 310 309 308 308 309 309 309 309 308 308 308 309 309 309 309 309 309 309 308 308 307 306 306 305 305 304 304 304 304 303 303 302 302 302 302 301 301 300
302 302 302 302 303 303 303 302 303 304 306 307 308 309 309 308 308 307 306 305 304 305 306 305 303 303 303 304 305 305 305 306 306 306 306 307 307 307 308 308 307 308 309 310 310 310 311 310 310 309 309 309 309 308 309 309 309 309 309 309 309 309 309 309 309 308 307 307 306 305 304 303 303 303 303 303 303 303 302 302 302 302 301 301 300
302 302 302 302 301 301 302 302 302 302 302 303 304 305 305 306 307 307 307 305 304 305 306 305 303 302 302 302 304 305 306 307 308 308 308 309 310 310 310 310 310 310 311 311 310 310 310 310 309 309 309 309 309 309 309 309 309 309 308 308 308 308 308 308 308 307 306 305 304 302 300 299 299 299 301 302 302 302 302 302 302 301 301 300 300
302 302 302 301 301 300 301 301 302 302 302 302 302 302 302 302 302 302 302 301 301 302 302 302 302 301 301 302 303 304 306 307 308 309 309 309 310 309 309 310 311 311 311 311 310 310 310 310 310 309 309 309 308 308 307 307 307 306 306 306 306 306 307 307 306 305 304 302 300 298 297 297 296 297 298 299 300 301 302 301 301 301 301 300 300
302 302 302 301 300 300 300 301 301 302 302 302 302 302 301 300 299 299 299 299 300 300 300 300 301 301 301 301 302 302 303 303 304 304 305 306 307 307 308 308 309 309 308 309 309 309 309 310 309 309 308 307 306 305 304 304 304 304 304 304 304 304 304 304 304 303 302 300 298 297 297 297 296 295 296 296 298 300 301 301 301 300 300 300 299
302 301 301 301 301 300 300 301 301 301 301 301 301 300 300 299 299 299 299 299 299 299 299 299 300 300 300 301 302 302 302 302 303 302 302 303 304 305 306 306 306 305 305 305 306 306 306 306 306 306 305 304 303 302 302 302 302 302 302 302 302 302 302 302 302 301 300 298 297 297 297 296 295 294 294 294 294 296 298 300 300 300 300 299 299
301 301 301 301 301 301 301 301 301 301 301 300 300 300 300 299 299 299 299 299 299 299 298 298 298 298 298 299 300 301 301 302 302 302 302 302 302 303 304 304 304 304 304 304 304 304 303 303 303 303 302 302 302 301 301 301 301 301 301 301 301 301 301 300 300 299 298 296 296 297 297 296 294 294 293 293 292 293 294 296 298 299 299 299 298
301 301 301 301 301 301 301 301 301 301 301 301 300 300 300 299 299 299 299 299 299 298 298 298 297 297 297 297 298 300 300 300 300 300 300 300 301 301 302 302 303 303 303 302 302 302 302 302 302 302 301 301 301 301 300 300 300 300 301 301 300 300 300 300 300 299 298 297 296 297 297 296 295 294 293 293 293 293 293 293 295 297 298 298 298
300 300 300 300 301 301 301 301 302 301 301 301 300 300 299 299 298 298 298 298 298 297 297 296 296 296 296 297 297 298 298 298 298 298 298 298 299 299 300 300 301 301 302 302 302 301 301 301 301 301 301 301 301 300 300 299 299 300 300 300 300 299 299 299 299 299 299 299 298 297 297 296 295 294 294 294 293 293 293 293 294 296 297 297 298
300 299 298 299 300 300 301 301 301 301 301 300 300 299 299 298 298 298 298 297 296 296 296 296 295 295 296 296 296 297 297 297 298 298 298 298 297 297 298 298 298 299 300 300 300 300 300 300 301 301 301 301 301 300 300 300 299 299 299 299 299 299 299 299 299 299 299 300 299 298 298 297 296 295 294 294 294 293 293 293 293 294 295 297 297
299 298 297 298 299 300 300 300 300 300 300 299 298 298 298 298 297 297 297 296 296 296 296 296 296 296 296 296 296 296 296 297 297 297 297 297 297 297 296 296 297 297 297 298 298 298 298 298 299 299 300 300 300 300 300 300 299 299 299 299 299 299 299 299 299 299 299 299 300 299 299 298 296 295 295 295 295 294 294 293 293 293 295 296 297
297 297 297 298 298 299 299 299 299 298 298 297 297 297 297 296 296 296 296 296 296 295 295 295 295 295 295 295 296 296 296 296 296 296 296 296 296 296 295 295 295 295 296 296 296 297 297 297 298 298 298 299 299 300 300 300 300 299 299 299 299 299 299 299 299 299 299 299 299 300 299 298 297 296 295 295 295 295 294 294 293 293 294 296 297
297 298 297 297 297 297 296 296 296 296 295 295 295 295 295 296 296 295 295 295 295 294 294 294 294 294 295 295 295 295 295 294 294 294 294 294 294 294 294 294 294 294 295 295 295 295 296 296 297 297 297 297 297 298 299 299 299 299 299 299 298 299 299 299 299 299 299 299 299 299 299 299 298 297 296 296 296 295 295 294 294 293 294 295 296
297 297 296 295 295 295 294 294 294 294 294 294 294 294 294 294 294 294 294 293 293 293 293 293 293 293 294 294 294 294 293 293 293 292 292 292 292 293 293 293 293 293 294 294 294 294 294 295 295 295 296 296 296 297 297 298 299 299 299 299 299 298 299 299 299 299 299 299 299 299 299 299 298 298 297 296 296 296 295 294 294 293 294 295 295
296 295 295 295 294 294 294 294 293 293 293 293 293 293 293 293 293 293 293 292 292 292 292 292 292 292 292 292 292 292 292 292 292 291 291 292 292 292 292 292 292 292 292 293 293 293 293 293 293 294 294 295 295 295 296 296 297 297 298 298 298 299 299 299 299 299 299 298 298 298 298 298 299 298 297 297 296 296 296 295 294 294 294 295 295
296 295 295 295 295 294 294 294 293 293 293 292 292 292 292 292 292 292 292 292 292 291 291 291 291 291 291 291 291 291 291 291 291 291 291 291 291 291 292 292 292 292 293 293 293 293 293 293 293 293 293 294 294 295 295 295 295 296 296 296 297 297 297 298 298 298 298 298 298 298 298 298 298 298 298 297 296 296 296 295 294 294 294 295 295
296 295 295 295 295 294 294 294 293 293 292 292 292 292 292 292 292 291 291 291 291 291 291 291 290 291 291 291 291 291 291 291 291 291 291 292 292 292 292 292 293 293 293 293 293 293 293 293 293 293 293 294 294 294 294 294 294 294 295 295 295 295 296 296 296 297 297 298 298 298 298 297 297 297 297 297 296 296 296 295 294 294 294 295 295
296 295 295 294 294 294 293 293 292 292 292 291 291 291 291 291 291 291 291 291 291 290 290 290 290 291 291 291 291 291 291 291 292 292 292 292 292 292 292 292 292 292 293 293 293 293 293 293 293 293 293 293 293 293 293 293 293 294 294 294 294 294 295 295 295 296 296 296 297 297 297 296 296 295 295 295 295 295 295 294 294 294 294 295 295
295 294 294 294 293 293 292 292 292 292 291 291 291 291 291 291 291 291 291 291 290 290 290 291 291 291 291 291 291 292 292 292 292 292 292 292 292 291 291 292 292 292 292 293 293 293 293 293 293 293 293 293 293 293 293 293 293 293 293 293 293 294 294 295 295 295 295 296 296 295 295 294 294 293 293 293 293 294 294 294 294 294 295 295 295
294 294 293 293 293 292 292 292 292 291 291 291 291 291 291 291 291 291 291 290 290 290 290 291 291 291 291 291 291 292 291 291 291 291 291 291 291 291 291 291 291 291 292 292 293 293 293 293 292 292 292 292 292 292 292 292 292 292 292 292 292 293 293 294 294 294 295 295 295 294 293 293 293 293 293 292 293 293 293 294 294 294 294 295 294
Wind_Speed
35 35 35 35 35 35 34 32 31 32 32 29 27 26 26 25 25 23 23 24 24 23 22 21 20 20 19 18 18 17 15 14 14 14 14 13 12 12 12 12 11 10 10 11 12 12 13 13 12 11 12 13 14 14 13 12 11 10 9 10 11 11 11 10 8 9 12 14 13 12 12 13 16 15 14 14 13 12 14 15 15 16 16 17 17
35 35 35 35 35 35 34 33 32 33 33 31 29 28 27 27 27 25 23 22 23 23 23 23 23 22 21 20 20 20 18 17 16 16 16 15 14 13 13 14 14 13 13 13 14 14 14 15 14 13 13 14 15 15 15 14 13 13 12 11 12 13 13 13 12 10 13 17 17 17 16 16 18 17 15 15 15 15 16 16 16 17 16 16 17
34 34 34 35 35 35 35 34 33 34 34 33 32 30 29 29 28 28 25 22 21 21 22 22 23 24 24 23 22 22 21 20 19 18 18 18 17 15 15 15 15 16 16 15 15 15 15 16 16 15 15 16 16 16 16 15 15 15 15 14 14 14 14 16 16 15 17 20 20 19 19 18 19 18 16 17 17 17 18 18 18 18 17 16 17
32 33 34 34 35 35 35 35 34 35 35 34 33 31 30 30 30 30 28 24 22 21 20 21 23 24 25 24 24 23 23 23 22 21 20 20 20 19 17 17 17 17 17 17 16 16 17 18 17 16 17 18 18 18 17 17 17 17 17 17 17 17 17 18 19 19 19 20 20 21 20 20 20 19 18 18 18 18 19 20 20 19 18 16 17
32 33 34 34 34 35 35 36 35 35 36 35 34 32 31 30 30 31 30 28 25 23 22 22 22 23 24 25 25 24 24 24 24 23 22 22 22 21 20 20 19 19 18 18 17 18 18 19 18 18 19 20 20 20 20 19 19 19 19 19 19 19 20 21 22 22 22 22 24 23 22 21 22 21 19 18 19 20 20 21 21 21 19 17 16
32 32 33 34 35 35 36 36 36 36 36 36 35 34 32 31 31 31 32 31 29 27 25 24 23 24 24 25 26 26 25 25 25 24 24 23 23 23 23 22 22 21 20 20 19 19 20 20 20 20 21 22 23 22 21 21 21 22 22 22 21 21 22 23 23 23 24 26 26 26 24 23 23 22 19 18 19 20 21 22 22 20 18 17 15
30 31 32 33 34 35 36 37 37 37 37 36 36 35 33 32 32 32 33 33 31 29 28 27 25 24 25 26 27 27 26 26 26 26 25 25 25 25 24 24 24 23 23 22 22 22 22 22 23 23 24 24 24 23 23 22 23 23 24 23 23 23 24 25 25 24 25 26 27 27 26 24 23 22 20 18 19 20 21 22 22 19 17 17 16
30 31 31 32 33 36 37 37 37 37 37 36 35 35 35 34 34 33 33 33 33 32 30 29 28 26 26 27 28 28 28 28 28 28 28 27 27 26 26 25 25 25 25 25 24 24 25 25 25 26 26 26 26 25 25 24 24 25 25 24 24 25 26 26 25 25 25 25 26 26 24 23 22 21 21 19 19 20 19 18 20 20 18 18 17
30 31 31 32 34 35 36 35 35 35 35 35 35 35 36 36 36 35 34 34 35 33 32 31 30 28 28 28 29 30 31 31 30 30 29 29 28 28 28 27 27 27 27 27 27 27 27 28 28 28 28 28 27 27 27 27 27 28 27 26 26 26 26 26 25 25 25 24 26 25 22 22 22 22 21 20 19 20 18 16 19 21 20 20 20
30 30 32 34 35 35 34 32 31 30 30 32 34 35 36 36 36 36 36 36 36 35 34 32 31 30 29 29 30 31 32 32 32 31 31 30 29 29 29 29 29 29 29 29 29 29 29 30 30 30 29 29 29 29 29 29 30 30 31 30 29 27 26 26 26 26 24 23 25 23 20 21 24 23 22 21 19 19 18 17 18 20 19 19 20
29 30 33 35 34 31 27 22 22 23 25 27 30 32 34 35 35 36 36 36 37 36 35 34 33 32 31 31 31 31 32 32 32 32 32 32 31 31 30 31 31 31 31 31 31 31 31 31 31 31 30 30 30 30 31 31 32 33 34 33 30 28 27 27 27 26 24 23 24 22 20 23 25 23 21 21 19 18 18 16 16 17 16 14 14
29 31 33 32 25 19 17 19 21 25 28 29 30 31 31 31 32 34 35 36 36 36 35 35 35 34 33 33 32 33 33 33 32 32 32 32 32 32 32 32 32 33 33 32 32 32 32 32 33 32 33 33 32 32 33 33 34 34 34 32 31 31 32 31 30 28 26 25 24 23 24 25 25 24 21 20 19 17 16 15 15 16 16 14 13
28 30 29 23 16 15 20 25 25 28 32 33 32 31 29 29 30 32 33 35 35 35 36 36 36 35 35 35 35 35 36 35 34 33 33 32 32 32 33 33 34 35 35 34 34 34 34 34 34 34 35 35 34 34 35 35 35 35 34 32 32 33 35 35 34 32 30 28 26 27 28 26 25 25 22 19 17 16 14 15 16 16 17 18 18
25 24 20 17 16 19 23 26 28 31 34 33 31 30 29 29 30 31 32 33 32 33 35 36 37 37 37 37 37 37 38 38 37 36 35 34 33 32 33 34 35 36 37 37 37 37 37 36 35 36 37 36 36 37 36 36 36 35 33 32 33 34 34 35 36 35 34 32 31 32 32 30 27 27 24 21 18 17 16 17 17 16 18 19 21
21 20 18 18 20 22 23 26 30 33 32 31 31 31 31 30 30 31 32 33 33 34 35 35 36 37 37 37 37 38 39 40 39 38 38 37 36 34 33 34 35 37 38 38 39 39 38 37 36 38 38 38 38 38 37 37 36 32 31 32 34 34 33 33 35 35 34 33 34 36 35 32 28 27 26 24 21 19 18 18 18 17 18 20 21
17 17 18 19 20 21 24 27 29 31 31 30 30 31 32 31 31 30 30 32 33 33 34 34 35 36 36 36 36 38 40 39 38 39 39 38 36 34 35 36 36 38 39 40 40 39 39 38 38 39 40 40 40 40 38 36 32 29 30 32 33 33 32 32 32 32 31 30 31 32 32 29 26 27 27 25 22 20 18 18 19 18 17 18 19
12 14 16 18 19 21 23 26 28 30 30 29 30 32 31 31 31 30 29 30 31 32 33 35 35 35 35 35 35 37 39 39 39 39 39 38 36 35 35 37 37 39 40 41 40 39 39 40 39 39 40 41 41 40 37 32 27 26 29 31 31 32 33 32 31 30 29 28 27 26 26 25 25 27 27 24 23 20 18 18 19 17 14 13 13
11 12 15 17 18 19 21 24 27 28 28 29 31 32 30 30 31 30 29 30 31 31 32 33 34 34 34 35 35 36 38 39 38 39 39 38 37 36 36 36 37 38 40 40 40 39 40 42 40 38 39 41 41 39 35 30 25 26 29 30 29 31 32 32 30 27 26 26 25 24 23 24 24 25 23 22 21 20 19 19 19 16 14 13 12
14 13 14 15 16 18 20 22 24 26 28 29 31 31 31 32 31 28 27 28 29 29 29 29 31 33 34 34 34 34 37 38 38 38 39 38 36 36 36 35 36 38 38 38 38 39 40 41 40 39 40 41 40 37 34 30 27 27 28 28 28 31 32 29 26 24 23 23 22 21 20 21 21 20 19 18 18 18 18 18 17 16 16 17 15
17 14 12 13 14 16 18 20 23 25 27 29 29 30 30 29 26 25 26 27 27 27 27 27 30 32 32 33 33 33 35 37 38 38 38 39 37 36 35 35 36 37 37 36 36 37 37 38 40 40 39 37 35 33 32 30 28 27 27 28 29 30 28 25 22 21 21 20 17 16 17 17 16 15 14 14 14 14 14 14 14 15 17 19 18
18 14 12 12 13 15 17 19 21 23 25 27 28 28 26 23 23 25 25 25 25 25 25 26 28 30 31 30 31 33 34 36 37 38 37 38 37 35 35 35 37 38 37 35 35 35 35 37 38 37 34 31 28 26 25 25 24 24 26 27 28 26 23 20 18 17 17 16 14 14 15 15 14 12 12 12 12 11 10 10 12 14 17 19 18
17 15 13 12 12 13 14 17 18 20 22 23 25 27 24 20 21 24 24 24 24 25 25 26 26 28 30 29 29 31 33 34 35 36 35 35 35 34 35 36 37 37 35 34 34 33 34 35 35 32 27 24 21 18 16 16 17 20 22 22 22 21 20 18 16 13 13 13 12 12 13 13 12 11 11 10 9 8 9 10 12 14 16 18 17
17 16 16 15 14 12 11 12 13 14 17 18 19 22 21 19 19 20 20 21 23 24 25 25 25 26 28 28 28 30 32 32 33 34 34 34 34 34 34 36 37 36 34 33 34 33 32 31 29 26 20 15 11 9 9 10 11 13 14 14 15 17 18 18 16 14 13 12 11 11 11 10 10 9 9 8 8 9 10 12 13 14 15 16 17
20 20 20 20 18 17 17 15 14 12 10 10 10 12 14 16 18 18 18 19 20 22 23 22 22 23 24 25 27 29 29 29 27 27 29 29 30 31 32 33 33 33 32 32 32 31 29 26 22 17 10 7 7 6 6 6 7 8 8 10 12 15 15 16 16 14 12 11 11 11 9 8 8 8 8 9 8 9 10 10 11 12 12 15 15
25 24 25 25 24 25 25 25 24 22 20 17 15 15 13 12 11 11 11 11 11 14 16 15 14 15 15 16 17 18 18 18 17 16 17 18 19 21 22 23 25 26 27 28 27 26 24 20 15 10 8 7 6 5 4 3 2 2 3 4 7 9 11 12 13 12 11 10 9 8 7 7 7 7 7 7 7 7 8 7 8 8 9 11 13
26 25 25 25 25 27 29 29 29 29 28 27 28 28 28 27 27 27 24 22 20 17 16 15 15 14 13 11 10 9 7 6 6 7 9 10 11 12 13 15 17 19 20 20 19 18 15 12 9 8 8 7 7 8 8 6 5 4 3 2 2 2 4 5 6 7 7 6 5 5 4 4 4 4 5 5 5 5 5 5 6 7 7 8 10
25 25 25 25 25 26 26 26 28 30 30 30 31 32 34 35 36 36 34 30 27 25 25 24 22 21 20 19 17 18 19 18 16 15 13 11 9 8 8 9 10 10 9 8 6 4 2 3 6 10 11 10 8 7 6 4 3 3 2 2 2 2 3 3 3 3 3 2 2 1 0 1 2 3 3 4 4 4 3 4 5 5 5 6 9
25 25 25 24 24 24 24 23 25 28 30 31 31 29 30 33 35 34 32 31 28 26 26 25 22 21 21 21 21 21 23 24 24 23 22 19 18 18 17 14 11 9 7 6 6 7 6 5 6 9 9 7 6 6 6 6 6 6 6 5 5 5 5 5 5 4 4 3 2 2 2 2 2 3 3 4 4 3 3 4 4 4 4 5 7
26 25 24 24 24 23 24 23 23 24 26 30 31 29 28 29 30 29 28 27 27 26 25 25 24 23 24 23 22 22 22 21 20 20 20 20 20 21 22 21 18 16 14 11 10 11 10 8 9 11 11 12 12 12 11 10 10 9 8 8 7 7 7 6 6 5 4 4 3 2 2 2 3 3 4 4 3 3 3 3 3 4 4 5 7
25 24 23 23 23 23 24 23 22 22 24 26 28 27 26 25 25 25 23 22 21 21 21 21 21 23 25 24 22 20 19 19 18 18 19 20 19 19 19 19 18 18 16 14 14 15 15 14 15 16 16 15 14 13 11 9 8 7 7 7 6 6 6 6 5 4 4 3 2 2 2 3 3 3 3 4 3 3 3 3 3 4 5 6 8
24 23 22 21 21 22 23 22 21 20 20 20 21 20 19 18 18 18 17 17 16 17 17 17 18 20 22 22 20 20 19 19 20 20 20 21 20 19 19 19 18 15 13 11 12 13 14 15 16 15 12 11 9 7 6 6 6 6 6 6 6 6 6 6 5 4 3 2 2 2 2 2 2 3 4 4 4 4 3 3 3 4 5 6 8
22 22 20 19 18 19 20 20 19 17 15 14 14 13 13 14 14 14 14 14 14 15 16 16 15 15 15 15 15 15 15 14 13 13 13 14 14 13 13 13 12 10 9 8 8 9 10 10 10 8 5 5 5 5 6 6 6 6 6 6 6 5 5 4 3 3 2 2 3 3 3 4 4 5 5 5 5 5 4 3 3 4 5 6 8
21 21 19 18 17 16 15 16 16 16 14 13 12 12 12 12 12 12 12 12 12 13 15 15 15 14 13 11 9 8 7 6 5 5 4 4 4 4 4 4 4 5 5 5 6 8 9 9 8 8 7 7 7 7 6 6 5 4 4 4 3 2 2 1 1 2 4 5 6 6 6 6 6 6 6 6 6 5 5 4 3 4 5 6 8
19 19 18 17 17 16 15 14 14 14 13 13 12 12 13 12 12 13 13 13 13 14 14 14 15 15 16 15 12 8 5 3 3 3 3 3 4 4 4 5 6 6 6 6 6 7 7 7 7 7 7 6 6 5 5 5 4 4 4 4 4 3 3 3 4 6 8 9 9 9 8 7 6 6 7 7 6 5 5 4 4 4 4 5 7
17 16 15 15 15 16 16 15 14 12 11 11 11 11 12 13 14 15 15 16 16 17 16 15 15 16 17 17 17 15 12 9 7 6 5 5 5 4 4 4 5 5 5 5 5 5 5 5 5 5 5 5 5 6 6 7 6 6 6 7 7 7 8 8 9 10 10 10 10 9 8 6 5 6 7 7 7 6 5 5 5 5 6 6 7
15 15 14 13 13 15 16 16 15 14 11 10 10 10 12 14 16 17 17 18 18 18 18 18 17 16 16 15 15 15 15 14 13 11 10 8 7 6 6 7 8 8 8 7 7 6 5 5 5 5 6 6 7 7 7 7 6 6 7 7 7 7 8 8 8 8 8 9 8 7 6 4 4 4 5 6 6 6 6 6 5 6 6 6 7
14 13 12 11 11 13 15 17 17 15 13 11 11 11 13 14 16 16 17 18 19 19 19 19 19 19 18 15 13 13 13 13 13 12 12 11 9 8 7 8 8 9 9 8 8 7 7 6 6 6 6 6 5 5 5 4 4 4 5 5 5 5 5 5 4 4 6 7 6 4 3 2 2 3 3 4 5 5 5 6 6 6 6 6 6
14 13 12 11 10 11 13 15 15 15 13 12 11 10 11 12 13 14 15 16 17 18 19 20 21 21 20 18 16 14 13 13 12 12 12 11 9 8 7 6 6 6 6 6 5 4 5 4 4 4 4 3 2 2 2 2 2 2 3 3 3 3 3 3 3 4 5 5 4 2 1 2 2 2 3 4 4 5 5 5 6 6 5 5 5
13 13 13 12 11 10 11 12 12 13 12 11 10 9 9 9 11 11 12 14 15 16 17 18 19 19 19 18 17 16 15 16 16 16 15 14 12 10 8 7 7 6 6 5 4 3 2 1 0 1 1 1 1 1 1 2 2 2 2 3 3 3 3 4 4 5 6 5 4 3 2 2 2 2 3 4 4 4 4 4 5 5 5 5 5
13 13 12 12 11 11 10 9 9 10 10 9 7 7 7 8 9 9 10 12 14 15 16 17 17 17 17 17 16 16 17 17 17 16 16 17 16 15 12 10 9 7 6 7 7 6 6 5 4 4 4 4 5 5 5 5 5 4 5 5 5 5 5 5 6 7 7 7 7 6 5 4 4 3 3 3 4 4 5 4 4 5 6 6 7
13 14 13 12 10 10 10 9 8 7 7 6 5 5 6 6 7 8 10 12 13 14 14 14 14 15 15 15 15 16 16 16 15 14 14 15 16 16 16 15 14 11 8 6 5 6 7 7 8 9 9 9 9 9 8 9 9 9 8 8 8 8 8 8 9 10 10 10 10 10 8 7 6 5 4 4 4 4 5 5 5 6 6 7 7
14 14 14 12 9 8 8 7 6 5 5 6 6 7 7 7 7 9 11 12 12 12 12 13 13 13 13 14 14 14 14 14 13 13 12 13 14 15 15 15 15 13 11 9 8 7 7 8 8 9 10 11 12 13 13 13 14 13 13 13 12 11 11 12 12 13 14 14 14 13 11 10 9 8 6 5 5 5 5 6 6 6 6 6 6
14 13 11 8 5 4 5 6 6 8 10 12 12 12 11 10 11 11 12 12 13 13 13 13 13 12 12 12 12 13 13 13 13 13 12 12 12 13 13 13 12 12 11 10 9 9 9 9 9 8 8 8 10 13 16 17 18 18 17 17 17 16 15 15 15 16 18 18 18 17 15 13 12 10 8 7 7 6 6 6 6 6 6 6 6
11 9 5 5 8 12 13 14 13 14 14 14 14 14 13 13 13 12 12 13 13 13 13 13 13 13 13 13 12 12 12 12 12 12 12 12 12 12 11 11 11 11 11 11 11 10 10 10 10 10 10 9 9 9 11 14 17 20 21 21 20 20 21 20 20 20 21 21 21 20 18 17 15 14 12 10 9 8 8 7 7 6 6 5 5
5 6 9 12 14 16 16 16 16 15 14 14 14 14 14 13 13 13 13 12 12 12 12 12 13 12 12 12 12 12 12 12 12 12 13 13 13 13 12 12 12 13 13 13 13 13 12 12 11 12 12 12 12 11 11 10 12 15 18 20 21 23 24 24 25 25 24 24 23 22 21 20 19 18 16 13 11 10 10 9 8 7 6 6 5
9 11 12 13 14 15 15 15 15 15 15 15 14 13 12 12 11 11 11 11 11 11 11 12 12 12 11 11 11 12 13 13 13 14 14 14 15 15 15 15 14 15 15 15 15 15 15 14 14 14 14 14 14 14 13 12 11 11 12 13 16 18 20 21 23 25 26 26 25 24 23 21 22 22 20 17 14 13 11 11 10 9 7 6 5
8 9 9 10 11 12 12 12 13 13 13 12 11 10 9 9 8 9 9 9 10 10 10 11 11 11 11 12 12 13 14 14 15 15 15 15 15 15 15 14 14 14 14 15 15 15 15 15 15 14 14 14 14 14 14 13 12 11 11 11 11 13 14 15 17 19 21 23 24 23 22 21 21 23 23 21 18 16 14 12 11 10 8 7 6
5 5 6 6 7 8 8 9 9 9 9 9 8 8 7 7 7 8 8 9 10 11 11 12 12 12 12 13 13 13 14 14 15 15 14 14 14 14 13 13 14 14 14 14 14 15 15 15 15 14 13 13 12 12 11 11 10 10 10 11 11 12 13 14 15 15 16 17 19 20 20 20 21 23 25 23 21 19 16 13 11 10 9 8 7
1 2 2 3 4 5 5 6 7 7 7 7 6 6 6 7 7 8 9 9 11 11 11 12 12 12 12 12 13 13 14 14 13 13 12 12 12 13 14 14 15 15 15 15 15 14 14 14 13 12 11 10 9 8 7 7 8 8 9 11 12 13 14 14 15 15 15 15 15 15 16 17 19 21 23 23 21 19 17 13 11 10 9 9 8
2 1 0 1 2 3 4 4 4 4 4 4 5 5 6 7 7 8 9 10 11 11 10 10 10 11 12 12 12 12 12 11 10 10 11 12 13 15 16 17 16 16 16 16 15 13 13 12 11 9 8 7 6 5 5 5 6 7 9 10 11 12 13 14 15 15 15 15 14 12 11 12 13 16 18 18 16 15 14 12 10 9 8 7 8
4 3 2 1 1 2 2 3 3 3 4 4 5 6 6 6 7 7 8 8 9 9 9 10 11 11 10 10 10 9 9 9 10 11 12 14 15 16 17 18 18 18 17 16 15 13 12 10 8 7 5 4 3 3 3 4 5 6 7 8 9 10 11 12 13 14 15 15 13 11 9 7 8 9 10 10 10 9 9 8 8 7 5 5 6
Wind_Direction
217 218 220 221 222 224 226 226 226 225 225 227 230 232 233 234 237 241 245 248 249 248 247 246 245 243 243 242 241 240 237 235 233 232 234 237 239 239 235 236 239 238 236 236 235 235 236 238 240 239 239 241 241 243 245 245 244 246 249 248 242 240 240 234 236 262 272 270 270 272 273 276 281 285 291 295 295 293 298 305 308 305 301 297 295
218 219 220 221 222 224 226 226 226 226 226 228 231 232 234 236 238 240 244 249 251 251 251 251 249 246 244 244 244 242 240 237 235 233 233 235 237 237 236 237 240 240 238 239 239 239 240 243 245 243 242 245 246 246 246 245 246 249 249 250 249 245 244 244 244 256 271 276 279 282 282 283 285 288 293 297 297 294 295 301 305 304 301 298 295
219 219 220 221 223 224 226 227 227 227 228 230 232 234 236 238 238 239 241 248 252 253 253 254 252 248 244 244 244 243 241 239 237 236 237 237 238 238 239 240 242 243 243 244 244 243 244 247 250 249 246 248 249 248 247 247 248 250 250 250 250 250 248 249 249 250 261 273 279 282 284 286 287 289 293 295 295 293 294 299 301 299 299 299 296
219 220 220 222 223 224 226 228 228 228 230 232 234 236 237 237 237 238 239 245 250 252 254 255 254 249 244 243 244 244 242 240 239 240 241 242 242 242 243 243 245 247 248 250 249 247 247 251 255 255 251 251 253 251 248 246 247 248 249 248 249 250 250 250 251 251 256 266 273 278 283 286 287 289 291 291 290 288 290 295 298 297 298 298 297
219 219 220 221 222 223 225 227 229 229 231 233 235 236 237 236 236 237 239 244 248 251 252 253 253 249 244 243 245 245 244 243 242 243 245 246 247 248 248 248 250 252 253 255 254 253 254 256 260 259 254 253 253 251 249 247 247 247 248 248 249 250 251 251 252 254 253 258 267 274 278 281 285 287 287 286 286 286 288 291 294 296 297 298 296
219 219 220 220 221 223 224 225 227 230 232 233 235 236 237 236 236 236 238 243 246 248 250 251 252 250 247 245 245 246 247 245 245 247 248 249 250 251 252 253 254 255 257 258 258 258 259 261 263 261 257 256 255 255 253 251 251 250 250 251 251 251 252 253 253 253 253 256 263 268 271 275 280 284 285 284 282 284 288 291 294 296 297 299 298
220 220 221 221 223 224 225 226 227 229 232 234 235 236 237 237 237 238 239 241 244 245 247 248 250 251 250 247 246 247 248 248 248 250 251 252 253 254 255 256 257 259 260 261 262 262 264 265 265 263 261 260 260 260 259 257 255 255 255 255 253 252 252 253 251 250 250 253 258 262 266 271 275 279 284 283 280 282 287 291 294 297 298 299 300
220 222 222 223 225 227 228 229 228 229 231 233 234 235 237 238 240 241 242 242 244 245 245 246 248 250 251 249 248 248 248 249 250 252 253 254 255 256 257 258 260 261 263 263 264 264 265 266 266 266 265 265 265 265 264 263 260 259 259 256 252 250 251 251 250 247 246 249 253 258 262 266 269 273 278 278 277 282 290 291 291 296 299 296 297
220 221 222 225 228 230 231 231 231 231 231 232 233 235 237 239 241 243 244 244 245 246 246 246 247 248 250 250 249 249 249 250 252 254 255 256 257 259 260 261 261 263 264 265 266 266 266 267 268 269 269 269 269 268 268 267 264 262 262 258 251 247 248 249 248 245 242 243 249 254 257 259 263 266 269 273 276 283 291 290 288 296 301 297 297
222 222 224 227 230 232 233 233 232 234 234 233 234 235 237 239 240 242 243 244 245 246 245 245 245 247 249 250 250 250 250 252 254 256 257 258 260 261 261 262 262 263 264 265 266 268 269 270 271 272 272 271 271 270 269 268 265 265 265 261 254 248 245 245 245 244 240 239 244 247 246 251 258 261 265 274 280 283 287 286 287 295 299 299 301
224 224 227 231 232 232 234 236 237 240 243 242 240 239 239 239 240 241 242 244 245 244 244 244 245 246 248 249 250 251 252 255 256 257 259 260 261 261 262 263 263 263 263 264 266 269 271 272 274 274 273 272 273 273 272 269 267 266 264 259 255 255 251 247 246 245 240 239 244 245 241 247 258 261 264 272 277 279 282 283 284 287 288 289 295
227 229 231 234 235 231 233 240 240 240 243 244 244 244 243 242 241 241 241 243 244 244 243 244 245 246 247 248 250 252 255 258 259 260 261 262 262 261 262 263 262 262 263 264 266 269 271 273 274 275 275 274 275 276 275 273 272 269 263 258 256 258 256 251 248 246 242 241 243 244 243 248 257 261 262 268 273 276 278 278 277 278 278 273 272
231 233 236 236 234 230 234 238 237 238 242 243 243 244 244 244 244 244 244 244 244 243 243 244 245 245 246 247 249 252 256 259 260 261 261 263 264 262 262 262 262 263 264 265 267 269 270 271 272 274 276 275 276 276 274 273 273 270 265 260 257 256 255 254 253 249 246 244 243 247 251 252 256 262 266 267 268 269 269 272 275 276 274 272 274
238 240 241 239 235 233 235 236 235 238 242 243 243 244 245 245 245 245 246 245 244 243 244 244 245 245 246 247 249 252 255 258 260 261 262 264 264 263 264 264 263 264 265 265 267 268 269 269 271 274 275 275 276 275 272 271 270 267 264 262 260 255 252 253 255 253 248 245 244 249 256 257 260 268 272 267 264 267 270 274 278 277 276 279 284
249 247 243 240 238 234 232 233 236 239 240 239 241 244 246 248 247 246 245 244 244 244 245 245 246 246 247 248 249 251 254 257 259 260 261 263 263 263 264 264 264 265 265 266 266 267 268 269 270 273 274 275 276 275 272 270 267 262 261 261 261 258 252 252 256 256 252 250 249 252 257 260 265 271 272 268 268 273 274 275 278 279 281 284 287
259 253 246 243 242 238 233 234 238 241 241 240 241 244 245 246 247 247 246 245 245 246 246 246 247 248 248 248 249 252 255 258 259 260 261 262 262 262 262 263 264 264 265 267 266 266 268 268 269 271 272 274 276 275 271 267 261 257 257 258 258 259 258 257 259 259 257 255 255 256 258 261 266 270 271 269 270 272 271 272 275 275 277 283 286
280 269 260 253 250 246 240 237 238 240 240 240 242 244 245 246 247 247 247 246 246 246 247 248 249 249 249 249 249 252 256 259 259 260 262 262 261 260 260 261 262 262 265 267 266 266 268 269 269 269 270 272 276 276 272 265 254 250 253 254 255 258 260 260 260 261 261 259 257 257 257 256 259 265 267 265 265 267 262 262 268 269 268 272 279
319 297 283 272 263 255 247 241 240 241 241 241 244 247 247 247 248 247 246 246 247 247 248 250 251 251 251 252 252 253 257 260 260 261 263 263 262 260 259 258 259 260 263 265 266 266 268 270 269 267 268 273 276 275 272 264 253 248 250 249 249 252 257 259 257 256 256 255 255 256 253 251 253 258 260 258 259 261 257 257 264 265 259 257 263
340 321 304 291 277 266 257 249 245 245 244 244 246 248 249 249 249 247 246 248 251 252 252 253 254 254 254 254 254 255 257 261 261 262 264 265 262 260 259 257 256 259 261 263 265 266 268 270 271 270 269 273 276 274 270 265 257 254 253 249 245 250 257 257 252 248 247 247 250 255 254 252 254 255 256 254 254 255 256 258 263 261 257 260 264
345 335 319 307 291 276 266 257 252 251 250 249 249 249 250 251 252 250 250 252 254 255 256 256 257 258 258 258 258 258 259 262 264 264 266 266 264 261 259 255 254 258 260 261 263 266 267 270 274 275 273 273 273 271 269 267 263 260 256 249 247 254 261 262 258 255 252 249 253 259 259 258 257 254 253 250 248 249 251 256 262 264 265 267 263
354 348 335 323 309 294 281 270 262 259 258 257 258 259 259 257 259 259 257 254 254 254 256 258 259 261 261 260 261 263 264 266 268 268 269 269 267 264 260 257 258 258 259 260 262 263 268 273 275 275 275 273 272 270 268 267 265 262 257 253 256 263 268 269 268 263 256 254 258 261 260 259 257 253 251 249 247 248 251 260 272 276 274 270 261
10 9 3 352 336 320 307 295 285 278 273 269 268 270 270 267 265 265 261 258 258 258 260 262 262 263 264 263 264 267 268 269 271 271 271 271 271 268 263 262 263 260 257 258 260 261 267 273 274 274 277 278 275 268 263 260 257 257 258 261 266 269 266 264 265 260 255 256 260 261 259 259 260 260 259 256 254 260 268 275 277 274 271 269 263
25 24 21 17 9 3 353 335 320 307 295 286 279 278 279 278 274 270 266 264 265 265 266 265 262 263 265 266 267 270 272 274 275 276 276 275 274 272 268 267 267 262 255 256 261 263 267 269 271 275 279 277 266 251 241 242 247 254 261 267 269 265 259 257 255 253 254 256 257 258 260 265 271 272 268 267 270 275 279 278 272 266 265 268 268
38 36 35 37 36 37 36 29 22 13 352 328 312 304 298 290 285 282 279 273 268 266 266 265 264 266 269 271 273 276 279 281 282 281 279 277 276 275 272 270 267 262 256 256 260 263 264 266 269 271 262 236 222 215 212 226 244 256 262 263 260 256 253 251 250 250 253 256 257 261 267 275 280 276 275 282 287 288 287 281 274 271 269 270 271
46 43 44 47 51 54 54 52 50 49 47 44 39 32 23 10 358 348 335 322 307 291 286 286 287 288 289 289 288 288 287 286 284 280 278 277 276 275 272 268 265 261 257 258 261 262 261 260 255 237 208 191 185 174 161 163 192 219 239 248 249 247 245 246 247 249 251 253 256 264 271 274 276 279 289 301 307 304 298 288 276 272 269 270 272
49 47 47 48 50 55 57 57 57 59 61 63 64 62 58 53 49 45 42 39 35 26 19 18 18 15 11 9 10 14 10 349 324 309 301 294 288 282 274 267 263 262 261 263 266 265 259 247 220 182 153 131 120 118 111 104 106 108 104 115 153 198 211 220 229 233 236 240 245 252 259 268 282 303 317 324 328 321 305 290 281 277 276 278 280
50 49 51 50 50 52 54 54 55 58 62 65 68 68 67 64 59 54 50 49 46 41 37 35 35 33 30 28 32 38 42 41 36 28 19 12 5 352 332 307 291 284 284 288 294 294 262 170 137 122 115 113 108 99 90 83 84 87 92 105 118 131 141 147 156 169 178 190 208 223 265 347 340 344 337 332 340 339 309 291 291 292 293 290 290
52 52 54 55 54 55 57 59 59 61 64 66 66 65 66 68 67 63 59 58 57 52 45 41 38 36 33 28 27 31 37 40 39 38 36 36 40 44 43 37 32 31 36 48 67 79 83 92 103 102 99 95 82 72 69 68 70 75 78 80 84 91 94 92 90 95 101 99 91 76 62 34 355 347 337 335 347 346 310 294 295 297 299 296 298
53 53 55 56 57 57 60 64 67 69 70 70 69 68 68 69 70 70 68 67 66 65 61 57 52 47 43 38 31 28 30 33 36 39 41 42 45 50 54 58 61 63 64 66 76 84 81 73 71 70 71 73 75 76 77 75 74 76 77 74 76 78 79 82 85 88 93 94 92 85 63 12 356 353 346 342 346 335 306 298 304 305 306 304 305
48 49 51 54 56 58 59 64 73 79 80 79 77 77 76 73 69 67 65 63 63 66 67 65 62 59 58 54 47 41 38 38 40 44 47 48 47 49 55 62 66 72 77 77 74 77 80 78 73 69 68 72 73 73 78 82 83 86 86 85 89 92 95 101 108 109 110 112 106 84 40 17 11 360 343 337 339 333 316 306 305 308 313 312 312
44 45 48 51 55 57 58 62 72 81 86 86 83 80 78 76 70 64 58 54 57 62 64 62 61 63 66 66 62 59 54 50 46 43 40 39 39 41 47 50 51 56 65 63 60 65 71 74 72 66 64 68 71 78 97 112 115 115 112 109 111 114 115 117 119 120 120 117 97 69 43 25 13 358 348 346 346 345 339 333 327 323 322 319 315
43 43 46 48 52 55 56 57 62 68 73 75 71 64 60 60 59 57 55 56 57 56 53 50 48 50 55 59 63 65 62 55 50 45 41 40 38 39 43 45 43 44 44 41 55 76 87 88 88 89 99 117 126 132 135 132 128 125 121 114 111 112 113 115 117 118 118 107 91 76 57 42 28 16 11 7 2 0 3 7 360 340 331 327 324
42 41 43 45 45 45 45 45 49 52 53 53 49 42 38 35 33 35 41 46 48 43 38 36 36 37 37 36 41 52 55 49 47 46 46 53 63 73 91 104 111 115 109 98 103 117 124 126 129 136 143 144 140 136 131 126 120 113 106 103 102 107 117 122 120 119 116 107 95 81 68 55 39 23 18 17 16 17 19 17 9 357 345 339 336
40 39 41 42 42 42 40 39 42 43 43 44 41 34 30 27 24 24 27 30 34 36 36 37 39 39 39 37 36 34 24 15 28 49 63 84 98 106 119 130 136 134 124 113 113 121 125 127 128 128 129 128 125 117 109 102 94 83 80 81 82 82 82 84 100 108 106 102 96 85 71 58 39 18 8 8 12 17 18 16 8 355 344 334 332
39 39 42 46 46 44 41 39 39 39 40 42 40 34 33 38 43 45 43 41 41 41 43 46 44 39 40 45 48 48 47 48 52 58 63 71 77 77 82 95 103 102 98 97 104 110 115 119 121 119 116 113 106 97 90 88 86 84 82 81 79 79 81 90 102 107 106 105 101 88 70 52 27 5 354 352 354 355 355 357 352 342 336 328 324
37 36 41 47 46 43 40 38 35 35 40 47 52 54 57 58 59 60 58 55 52 49 48 48 48 45 46 50 51 48 47 47 46 42 37 33 35 45 58 70 76 77 77 79 82 85 91 100 102 99 98 101 101 97 92 87 82 79 76 75 74 77 84 93 102 107 111 116 111 89 64 41 10 352 343 339 337 333 330 331 331 331 333 332 326
40 35 37 40 38 36 38 38 35 35 40 51 61 68 71 69 66 66 65 62 60 58 55 53 52 50 48 50 51 49 48 48 47 43 40 35 32 40 58 71 72 70 69 71 75 78 81 87 95 99 101 102 101 95 86 78 74 73 76 78 78 80 87 97 104 114 128 133 125 96 56 25 354 342 332 326 324 317 311 310 311 314 321 326 327
38 34 33 31 28 27 30 32 31 30 31 36 44 52 61 66 68 71 71 69 68 67 63 60 57 53 49 49 51 52 50 49 48 45 44 41 34 31 35 39 37 36 39 48 64 76 78 80 89 99 97 94 95 94 89 93 103 103 106 109 106 106 116 124 132 146 158 162 157 132 21 338 322 313 312 316 319 317 312 305 303 304 308 310 315
27 27 25 21 18 19 22 23 23 22 21 21 24 31 42 56 66 73 76 76 75 74 70 66 61 56 52 49 48 48 48 49 48 48 51 54 51 44 31 12 1 360 0 4 8 8 6 13 97 176 225 268 265 249 229 211 194 189 184 172 163 162 170 182 193 192 195 204 209 215 265 301 299 293 300 309 317 320 319 311 301 297 298 301 305
8 11 11 9 7 7 9 11 11 13 14 12 14 29 43 51 60 72 82 83 80 76 72 67 61 57 53 49 44 44 47 50 50 50 52 53 52 50 45 34 21 4 345 340 343 339 327 312 295 281 275 273 273 269 258 244 228 219 219 217 212 208 207 213 224 229 231 235 237 240 254 272 275 274 285 301 314 322 325 325 317 306 303 305 305
348 349 350 352 352 350 349 352 358 8 18 20 31 56 65 61 62 75 84 82 76 71 67 63 59 56 55 51 45 41 44 47 49 50 50 47 43 43 43 41 36 31 21 11 1 344 323 304 289 280 274 269 266 264 260 252 241 233 230 230 228 230 232 235 241 247 249 247 246 248 254 265 269 270 277 293 308 322 329 333 334 328 318 310 306
337 338 338 338 337 338 343 349 357 26 60 75 77 77 76 73 75 80 81 75 67 60 56 54 51 50 50 48 43 38 39 43 45 46 45 40 35 34 36 37 36 35 33 28 19 3 346 329 311 294 281 272 265 261 257 252 246 241 240 239 237 238 241 245 251 257 259 257 254 251 250 257 264 267 270 281 292 306 318 324 329 331 326 317 309
338 339 337 337 349 29 52 58 66 74 78 78 76 74 72 72 73 73 70 62 53 47 45 44 43 42 41 39 36 36 40 43 45 43 40 36 31 28 29 30 29 27 24 19 15 7 357 351 345 333 316 298 279 266 259 255 251 249 248 248 248 247 248 249 253 257 259 261 261 256 250 249 254 258 259 265 275 285 295 307 316 320 320 318 310
341 347 10 58 78 80 80 79 79 77 74 71 67 65 62 62 62 61 57 52 48 46 44 40 35 32 31 30 31 36 39 40 38 34 29 25 21 16 13 11 8 6 5 4 3 1 356 351 348 345 340 335 326 306 284 268 260 256 255 256 258 259 258 259 260 263 265 267 268 265 258 251 250 252 252 252 260 272 279 288 298 303 305 307 306
28 64 83 84 79 74 70 67 65 64 61 57 54 52 52 52 53 51 49 46 44 41 39 35 30 29 29 30 32 32 30 24 19 14 9 5 2 358 354 350 347 345 343 342 342 343 343 341 339 337 334 332 332 331 323 308 288 273 266 263 263 264 263 264 265 268 271 272 271 271 266 257 250 250 249 246 249 259 268 274 280 287 293 297 298
89 89 84 76 69 64 59 54 50 48 46 45 45 45 47 47 47 45 42 39 36 32 28 26 24 24 24 23 18 13 8 3 358 355 351 348 345 342 340 338 336 333 331 330 329 329 329 327 325 325 324 322 321 321 320 318 313 302 289 279 274 272 270 269 268 268 270 272 272 273 271 263 255 250 248 244 243 248 257 266 273 277 280 284 286
94 83 72 65 60 56 51 45 42 40 39 39 38 37 38 38 36 34 31 27 24 20 14 11 9 6 4 1 356 352 350 347 343 341 339 336 336 337 335 334 334 333 330 328 325 322 321 318 315 312 309 307 306 305 305 304 304 302 300 297 292 288 285 282 278 275 274 273 273 271 269 264 257 250 246 242 239 241 248 257 264 270 272 268 265
93 74 64 56 47 42 39 35 33 31 31 31 30 28 27 24 18 17 15 10 8 4 359 356 355 352 348 346 343 339 337 334 332 332 333 334 337 341 342 341 342 341 338 334 329 323 318 313 307 303 299 295 293 293 295 299 301 304 306 307 307 307 306 303 299 294 288 283 279 274 269 264 258 253 248 244 240 241 245 250 256 263 264 257 251
113 68 56 39 32 33 31 27 24 22 21 21 15 9 8 5 360 359 358 355 354 355 352 348 346 343 339 336 333 330 330 330 331 334 340 345 350 352 351 349 348 346 343 340 336 330 323 316 308 303 301 300 301 304 309 315 321 325 329 331 331 330 329 326 322 319 313 306 300 292 281 271 263 258 253 247 242 240 243 247 251 257 258 252 247
204 189 117 24 22 24 17 11 8 2 358 356 348 344 344 342 339 341 345 346 347 348 346 343 340 337 333 330 328 327 329 334 339 345 349 350 350 350 349 349 348 345 342 337 333 329 325 319 311 307 306 306 311 320 330 340 348 352 353 352 348 343 340 339 337 337 336 333 327 318 306 291 280 269 262 256 251 248 245 242 242 247 251 252 252
210 207 216 272 315 329 325 317 311 310 312 314 315 317 318 318 321 329 335 338 339 339 337 335 335 335 335 334 333 334 337 339 340 341 341 341 342 343 344 344 343 341 336 330 324 319 317 311 304 300 298 296 303 325 347 4 15 19 16 10 4 358 355 354 351 351 353 354 352 348 340 328 311 293 279 272 269 265 256 247 241 236 235 244 259